owner,sensor,date,latitude,longitude,vertical_datum,wind_speed,wind_to_direction,wind_speed_of_gust,qcFlag 
DISL,ioos:station:DISL:MBLA:1,2017-09-01T00:00:00Z,30.4367,-88.0117,14.2,12.87,217.7,-999.0,'1111122,1111122,1111122' 
DISL,ioos:station:DISL:MBLA:1,2017-09-01T00:30:00Z,30.4367,-88.0117,14.2,12.42,225.0,-999.0,'1111122,1111122,1111122' 
DISL,ioos:station:DISL:MBLA:1,2017-09-01T01:00:00Z,30.4367,-88.0117,14.2,12.73,223.3,-999.0,'1111122,1111122,1111122' 
DISL,ioos:station:DISL:MBLA:1,2017-09-01T01:30:00Z,30.4367,-88.0117,14.2,12.35,222.2,-999.0,'1111122,1111122,1111122' 
DISL,ioos:station:DISL:MBLA:1,2017-09-01T02:00:00Z,30.4367,-88.0117,14.2,11.35,220.6,-999.0,'1111122,1111122,1111122' 
DISL,ioos:station:DISL:MBLA:1,2017-09-01T02:30:00Z,30.4367,-88.0117,14.2,11.21,224.4,-999.0,'1111122,1111122,1111122' 
DISL,ioos:station:DISL:MBLA:1,2017-09-01T03:00:00Z,30.4367,-88.0117,14.2,10.41,224.6,-999.0,'1111122,1111122,1111122' 
DISL,ioos:station:DISL:MBLA:1,2017-09-01T03:30:00Z,30.4367,-88.0117,14.2,10.81,227.7,-999.0,'1111122,1111122,1111122' 
DISL,ioos:station:DISL:MBLA:1,2017-09-01T04:00:00Z,30.4367,-88.0117,14.2,10.28,229.8,-999.0,'1111122,1111122,1111122' 
DISL,ioos:station:DISL:MBLA:1,2017-09-01T04:30:00Z,30.4367,-88.0117,14.2,9.71,226.8,-999.0,'1111122,1111122,1111122' 
DISL,ioos:station:DISL:MBLA:1,2017-09-01T05:00:00Z,30.4367,-88.0117,14.2,9.29,228.8,-999.0,'1111122,1111122,1111122' 
DISL,ioos:station:DISL:MBLA:1,2017-09-01T05:30:00Z,30.4367,-88.0117,14.2,9.33,229.4,-999.0,'1111122,1111122,1111122' 
DISL,ioos:station:DISL:MBLA:1,2017-09-01T06:00:00Z,30.4367,-88.0117,14.2,10.18,235.0,-999.0,'1111122,1111122,1111122' 
DISL,ioos:station:DISL:MBLA:1,2017-09-01T06:30:00Z,30.4367,-88.0117,14.2,9.01,237.5,-999.0,'1111122,1111122,1111122' 
DISL,ioos:station:DISL:MBLA:1,2017-09-01T07:00:00Z,30.4367,-88.0117,14.2,8.5,237.7,-999.0,'1111122,1111122,1111122' 
DISL,ioos:station:DISL:MBLA:1,2017-09-01T07:30:00Z,30.4367,-88.0117,14.2,7.64,237.5,-999.0,'1111122,1111122,1111122' 
DISL,ioos:station:DISL:MBLA:1,2017-09-01T08:00:00Z,30.4367,-88.0117,14.2,6.24,231.2,-999.0,'1111122,1111122,1111122' 
DISL,ioos:station:DISL:MBLA:1,2017-09-01T08:30:00Z,30.4367,-88.0117,14.2,6.73,230.2,-999.0,'1111122,1111122,1111122' 
DISL,ioos:station:DISL:MBLA:1,2017-09-01T09:00:00Z,30.4367,-88.0117,14.2,4.19,261.6,-999.0,'1111122,1111122,1111122' 
DISL,ioos:station:DISL:MBLA:1,2017-09-01T09:30:00Z,30.4367,-88.0117,14.2,4.88,270.8,-999.0,'1111122,1111122,1111122' 
DISL,ioos:station:DISL:MBLA:1,2017-09-01T10:00:00Z,30.4367,-88.0117,14.2,4.75,273.0,-999.0,'1111122,1111122,1111122' 
DISL,ioos:station:DISL:MBLA:1,2017-09-01T10:30:00Z,30.4367,-88.0117,14.2,4.83,257.5,-999.0,'1111122,1111122,1111122' 
DISL,ioos:station:DISL:MBLA:1,2017-09-01T11:00:00Z,30.4367,-88.0117,14.2,6.3,272.4,-999.0,'1111122,1111122,1111122' 
DISL,ioos:station:DISL:MBLA:1,2017-09-01T11:30:00Z,30.4367,-88.0117,14.2,6.04,264.6,-999.0,'1111122,1111122,1111122' 
DISL,ioos:station:DISL:MBLA:1,2017-09-01T12:00:00Z,30.4367,-88.0117,14.2,5.86,273.2,-999.0,'1111122,1111122,1111122' 
DISL,ioos:station:DISL:MBLA:1,2017-09-01T12:30:00Z,30.4367,-88.0117,14.2,6.2,285.8,-999.0,'1111122,1111122,1111122' 
DISL,ioos:station:DISL:MBLA:1,2017-09-01T13:00:00Z,30.4367,-88.0117,14.2,5.69,276.5,-999.0,'1111122,1111122,1111122' 
DISL,ioos:station:DISL:MBLA:1,2017-09-01T13:30:00Z,30.4367,-88.0117,14.2,5.86,288.4,-999.0,'1111122,1111122,1111122' 
DISL,ioos:station:DISL:MBLA:1,2017-09-01T14:00:00Z,30.4367,-88.0117,14.2,3.53,280.2,-999.0,'1111122,1111122,1111122' 
DISL,ioos:station:DISL:MBLA:1,2017-09-01T14:30:00Z,30.4367,-88.0117,14.2,2.64,308.5,-999.0,'1111122,1111122,1111122' 
DISL,ioos:station:DISL:MBLA:1,2017-09-01T15:00:00Z,30.4367,-88.0117,14.2,1.54,305.3,-999.0,'1111122,1111122,1111122' 
DISL,ioos:station:DISL:MBLA:1,2017-09-01T15:30:00Z,30.4367,-88.0117,14.2,1.4,310.7,-999.0,'1111122,1111122,1111122' 
DISL,ioos:station:DISL:MBLA:1,2017-09-01T16:00:00Z,30.4367,-88.0117,14.2,1.63,355.9,-999.0,'1111122,1111122,1111122' 
DISL,ioos:station:DISL:MBLA:1,2017-09-01T16:30:00Z,30.4367,-88.0117,14.2,0.74,350.6,-999.0,'1111122,1111122,1111122' 
DISL,ioos:station:DISL:MBLA:1,2017-09-01T17:00:00Z,30.4367,-88.0117,14.2,0.63,108.8,-999.0,'1111122,1111122,1111122' 
DISL,ioos:station:DISL:MBLA:1,2017-09-01T17:30:00Z,30.4367,-88.0117,14.2,2.46,115.9,-999.0,'1111122,1111122,1111122' 
DISL,ioos:station:DISL:MBLA:1,2017-09-01T18:00:00Z,30.4367,-88.0117,14.2,2.82,128.0,-999.0,'1111122,1111122,1111122' 
DISL,ioos:station:DISL:MBLA:1,2017-09-01T18:30:00Z,30.4367,-88.0117,14.2,6.42,207.4,-999.0,'1111122,1111122,1111122' 
DISL,ioos:station:DISL:MBLA:1,2017-09-01T19:00:00Z,30.4367,-88.0117,14.2,6.5,221.5,-999.0,'1111122,1111122,1111122' 
DISL,ioos:station:DISL:MBLA:1,2017-09-01T19:30:00Z,30.4367,-88.0117,14.2,7.69,200.8,-999.0,'1111122,1111122,1111122' 
DISL,ioos:station:DISL:MBLA:1,2017-09-01T20:00:00Z,30.4367,-88.0117,14.2,7.98,201.9,-999.0,'1111122,1111122,1111122' 
DISL,ioos:station:DISL:MBLA:1,2017-09-01T20:30:00Z,30.4367,-88.0117,14.2,7.21,203.4,-999.0,'1111122,1111122,1111122' 
DISL,ioos:station:DISL:MBLA:1,2017-09-01T21:00:00Z,30.4367,-88.0117,14.2,5.5,193.9,-999.0,'1111122,1111122,1111122' 
DISL,ioos:station:DISL:MBLA:1,2017-09-01T21:30:00Z,30.4367,-88.0117,14.2,6.66,195.2,-999.0,'1111122,1111122,1111122' 
DISL,ioos:station:DISL:MBLA:1,2017-09-01T22:00:00Z,30.4367,-88.0117,14.2,6.91,200.2,-999.0,'1111122,1111122,1111122' 
DISL,ioos:station:DISL:MBLA:1,2017-09-01T22:30:00Z,30.4367,-88.0117,14.2,6.61,194.5,-999.0,'1111122,1111122,1111122' 
DISL,ioos:station:DISL:MBLA:1,2017-09-01T23:00:00Z,30.4367,-88.0117,14.2,6.79,198.1,-999.0,'1111122,1111122,1111122' 
DISL,ioos:station:DISL:MBLA:1,2017-09-01T23:30:00Z,30.4367,-88.0117,14.2,6.58,199.9,-999.0,'1111122,1111122,1111122' 
DISL,ioos:station:DISL:MBLA:1,2017-09-02T00:00:00Z,30.4367,-88.0117,14.2,7.26,203.1,-999.0,'1111122,1111122,1111122' 
DISL,ioos:station:DISL:MBLA:1,2017-09-02T00:30:00Z,30.4367,-88.0117,14.2,6.99,212.6,-999.0,'1111122,1111122,1111122' 
DISL,ioos:station:DISL:MBLA:1,2017-09-02T01:00:00Z,30.4367,-88.0117,14.2,6.86,232.5,-999.0,'1111122,1111122,1111122' 
DISL,ioos:station:DISL:MBLA:1,2017-09-02T01:30:00Z,30.4367,-88.0117,14.2,6.16,236.5,-999.0,'1111122,1111122,1111122' 
DISL,ioos:station:DISL:MBLA:1,2017-09-02T02:00:00Z,30.4367,-88.0117,14.2,5.3,235.8,-999.0,'1111122,1111122,1111122' 
DISL,ioos:station:DISL:MBLA:1,2017-09-02T02:30:00Z,30.4367,-88.0117,14.2,4.33,234.9,-999.0,'1111122,1111122,1111122' 
DISL,ioos:station:DISL:MBLA:1,2017-09-02T03:00:00Z,30.4367,-88.0117,14.2,3.76,279.6,-999.0,'1111122,1111122,1111122' 
DISL,ioos:station:DISL:MBLA:1,2017-09-02T03:30:00Z,30.4367,-88.0117,14.2,2.04,295.3,-999.0,'1111122,1111122,1111122' 
DISL,ioos:station:DISL:MBLA:1,2017-09-02T04:00:00Z,30.4367,-88.0117,14.2,1.75,324.2,-999.0,'1111122,1111122,1111122' 
DISL,ioos:station:DISL:MBLA:1,2017-09-02T04:30:00Z,30.4367,-88.0117,14.2,1.85,264.8,-999.0,'1111122,1111122,1111122' 
DISL,ioos:station:DISL:MBLA:1,2017-09-02T05:00:00Z,30.4367,-88.0117,14.2,3.09,230.1,-999.0,'1111122,1111122,1111122' 
DISL,ioos:station:DISL:MBLA:1,2017-09-02T05:30:00Z,30.4367,-88.0117,14.2,5.21,224.8,-999.0,'1111122,1111122,1111122' 
DISL,ioos:station:DISL:MBLA:1,2017-09-02T06:00:00Z,30.4367,-88.0117,14.2,1.95,275.0,-999.0,'1111122,1111122,1111122' 
DISL,ioos:station:DISL:MBLA:1,2017-09-02T06:30:00Z,30.4367,-88.0117,14.2,1.61,356.8,-999.0,'1111122,1111122,1111122' 
DISL,ioos:station:DISL:MBLA:1,2017-09-02T07:00:00Z,30.4367,-88.0117,14.2,2.93,340.3,-999.0,'1111122,1111122,1111122' 
DISL,ioos:station:DISL:MBLA:1,2017-09-02T07:30:00Z,30.4367,-88.0117,14.2,1.65,24.99,-999.0,'1111122,1111122,1111122' 
DISL,ioos:station:DISL:MBLA:1,2017-09-02T08:00:00Z,30.4367,-88.0117,14.2,1.97,353.0,-999.0,'1111122,1111122,1111122' 
DISL,ioos:station:DISL:MBLA:1,2017-09-02T08:30:00Z,30.4367,-88.0117,14.2,2.27,331.5,-999.0,'1111122,1111122,1111122' 
DISL,ioos:station:DISL:MBLA:1,2017-09-02T09:00:00Z,30.4367,-88.0117,14.2,2.11,337.2,-999.0,'1111122,1111122,1111122' 
DISL,ioos:station:DISL:MBLA:1,2017-09-02T09:30:00Z,30.4367,-88.0117,14.2,2.67,322.2,-999.0,'1111122,1111122,1111122' 
DISL,ioos:station:DISL:MBLA:1,2017-09-02T10:00:00Z,30.4367,-88.0117,14.2,2.27,0.944,-999.0,'1111122,1111122,1111122' 
DISL,ioos:station:DISL:MBLA:1,2017-09-02T10:30:00Z,30.4367,-88.0117,14.2,3.63,4.804,-999.0,'1111122,1111122,1111122' 
DISL,ioos:station:DISL:MBLA:1,2017-09-02T11:00:00Z,30.4367,-88.0117,14.2,3.4,353.9,-999.0,'1111122,1111122,1111122' 
DISL,ioos:station:DISL:MBLA:1,2017-09-02T11:30:00Z,30.4367,-88.0117,14.2,2.31,32.4,-999.0,'1111122,1111122,1111122' 
DISL,ioos:station:DISL:MBLA:1,2017-09-02T12:00:00Z,30.4367,-88.0117,14.2,2.72,16.0,-999.0,'1111122,1111122,1111122' 
DISL,ioos:station:DISL:MBLA:1,2017-09-02T12:30:00Z,30.4367,-88.0117,14.2,3.14,15.54,-999.0,'1111122,1111122,1111122' 
DISL,ioos:station:DISL:MBLA:1,2017-09-02T13:00:00Z,30.4367,-88.0117,14.2,3.14,4.303,-999.0,'1111122,1111122,1111122' 
DISL,ioos:station:DISL:MBLA:1,2017-09-02T13:30:00Z,30.4367,-88.0117,14.2,3.11,26.38,-999.0,'1111122,1111122,1111122' 
DISL,ioos:station:DISL:MBLA:1,2017-09-02T14:00:00Z,30.4367,-88.0117,14.2,3.08,34.01,-999.0,'1111122,1111122,1111122' 
DISL,ioos:station:DISL:MBLA:1,2017-09-02T14:30:00Z,30.4367,-88.0117,14.2,3.54,20.94,-999.0,'1111122,1111122,1111122' 
DISL,ioos:station:DISL:MBLA:1,2017-09-02T15:00:00Z,30.4367,-88.0117,14.2,3.39,6.022,-999.0,'1111122,1111122,1111122' 
DISL,ioos:station:DISL:MBLA:1,2017-09-02T15:30:00Z,30.4367,-88.0117,14.2,2.64,356.7,-999.0,'1111122,1111122,1111122' 
DISL,ioos:station:DISL:MBLA:1,2017-09-02T16:00:00Z,30.4367,-88.0117,14.2,2.01,346.6,-999.0,'1111122,1111122,1111122' 
DISL,ioos:station:DISL:MBLA:1,2017-09-02T16:30:00Z,30.4367,-88.0117,14.2,0.76,355.1,-999.0,'1111122,1111122,1111122' 
DISL,ioos:station:DISL:MBLA:1,2017-09-02T17:00:00Z,30.4367,-88.0117,14.2,0.14,3.548,-999.0,'1111122,1111122,1111122' 
DISL,ioos:station:DISL:MBLA:1,2017-09-02T17:30:00Z,30.4367,-88.0117,14.2,0.79,156.0,-999.0,'1111122,1111122,1111122' 
DISL,ioos:station:DISL:MBLA:1,2017-09-02T18:00:00Z,30.4367,-88.0117,14.2,1.72,190.7,-999.0,'1111122,1111122,1111122' 
DISL,ioos:station:DISL:MBLA:1,2017-09-02T18:30:00Z,30.4367,-88.0117,14.2,2.61,196.3,-999.0,'1111122,1111122,1111122' 
DISL,ioos:station:DISL:MBLA:1,2017-09-02T19:00:00Z,30.4367,-88.0117,14.2,4.14,212.9,-999.0,'1111122,1111122,1111122' 
DISL,ioos:station:DISL:MBLA:1,2017-09-02T19:30:00Z,30.4367,-88.0117,14.2,6.77,281.9,-999.0,'1111122,1111122,1111122' 
DISL,ioos:station:DISL:MBLA:1,2017-09-02T20:00:00Z,30.4367,-88.0117,14.2,2.74,227.4,-999.0,'1111122,1111122,1111122' 
DISL,ioos:station:DISL:MBLA:1,2017-09-02T20:30:00Z,30.4367,-88.0117,14.2,4.07,215.3,-999.0,'1111122,1111122,1111122' 
DISL,ioos:station:DISL:MBLA:1,2017-09-02T21:00:00Z,30.4367,-88.0117,14.2,2.46,204.5,-999.0,'1111122,1111122,1111122' 
DISL,ioos:station:DISL:MBLA:1,2017-09-02T21:30:00Z,30.4367,-88.0117,14.2,2.49,204.1,-999.0,'1111122,1111122,1111122' 
DISL,ioos:station:DISL:MBLA:1,2017-09-02T22:00:00Z,30.4367,-88.0117,14.2,0.5,231.6,-999.0,'1111122,1111122,1111122' 
DISL,ioos:station:DISL:MBLA:1,2017-09-02T22:30:00Z,30.4367,-88.0117,14.2,1.05,136.8,-999.0,'1111122,1111122,1111122' 
DISL,ioos:station:DISL:MBLA:1,2017-09-02T23:00:00Z,30.4367,-88.0117,14.2,1.47,139.8,-999.0,'1111122,1111122,1111122' 
DISL,ioos:station:DISL:MBLA:1,2017-09-02T23:30:00Z,30.4367,-88.0117,14.2,0.94,150.6,-999.0,'1111122,1111122,1111122' 
DISL,ioos:station:DISL:MBLA:1,2017-09-03T00:00:00Z,30.4367,-88.0117,14.2,1.27,172.6,-999.0,'1111122,1111122,1111122' 
DISL,ioos:station:DISL:MBLA:1,2017-09-03T00:30:00Z,30.4367,-88.0117,14.2,3.01,252.8,-999.0,'1111122,1111122,1111122' 
DISL,ioos:station:DISL:MBLA:1,2017-09-03T01:00:00Z,30.4367,-88.0117,14.2,2.56,249.5,-999.0,'1111122,1111122,1111122' 
DISL,ioos:station:DISL:MBLA:1,2017-09-03T01:30:00Z,30.4367,-88.0117,14.2,3.47,292.3,-999.0,'1111122,1111122,1111122' 
DISL,ioos:station:DISL:MBLA:1,2017-09-03T02:00:00Z,30.4367,-88.0117,14.2,3.18,316.5,-999.0,'1111122,1111122,1111122' 
DISL,ioos:station:DISL:MBLA:1,2017-09-03T02:30:00Z,30.4367,-88.0117,14.2,2.93,311.8,-999.0,'1111122,1111122,1111122' 
DISL,ioos:station:DISL:MBLA:1,2017-09-03T03:00:00Z,30.4367,-88.0117,14.2,6.09,338.0,-999.0,'1111122,1111122,1111122' 
DISL,ioos:station:DISL:MBLA:1,2017-09-03T03:30:00Z,30.4367,-88.0117,14.2,4.32,341.5,-999.0,'1111122,1111122,1111122' 
DISL,ioos:station:DISL:MBLA:1,2017-09-03T04:00:00Z,30.4367,-88.0117,14.2,6.92,358.0,-999.0,'1111122,1111122,1111122' 
DISL,ioos:station:DISL:MBLA:1,2017-09-03T04:30:00Z,30.4367,-88.0117,14.2,4.8,347.6,-999.0,'1111122,1111122,1111122' 
DISL,ioos:station:DISL:MBLA:1,2017-09-03T05:00:00Z,30.4367,-88.0117,14.2,3.26,22.96,-999.0,'1111122,1111122,1111122' 
DISL,ioos:station:DISL:MBLA:1,2017-09-03T05:30:00Z,30.4367,-88.0117,14.2,4.44,41.42,-999.0,'1111122,1111122,1111122' 
DISL,ioos:station:DISL:MBLA:1,2017-09-03T06:00:00Z,30.4367,-88.0117,14.2,4.95,17.43,-999.0,'1111122,1111122,1111122' 
DISL,ioos:station:DISL:MBLA:1,2017-09-03T06:30:00Z,30.4367,-88.0117,14.2,4.97,22.16,-999.0,'1111122,1111122,1111122' 
DISL,ioos:station:DISL:MBLA:1,2017-09-03T07:00:00Z,30.4367,-88.0117,14.2,6.04,24.9,-999.0,'1111122,1111122,1111122' 
DISL,ioos:station:DISL:MBLA:1,2017-09-03T07:30:00Z,30.4367,-88.0117,14.2,5.37,31.0,-999.0,'1111122,1111122,1111122' 
DISL,ioos:station:DISL:MBLA:1,2017-09-03T08:00:00Z,30.4367,-88.0117,14.2,4.54,19.34,-999.0,'1111122,1111122,1111122' 
DISL,ioos:station:DISL:MBLA:1,2017-09-03T08:30:00Z,30.4367,-88.0117,14.2,5.39,23.71,-999.0,'1111122,1111122,1111122' 
DISL,ioos:station:DISL:MBLA:1,2017-09-03T09:00:00Z,30.4367,-88.0117,14.2,4.67,34.57,-999.0,'1111122,1111122,1111122' 
DISL,ioos:station:DISL:MBLA:1,2017-09-03T09:30:00Z,30.4367,-88.0117,14.2,4.35,65.66,-999.0,'1111122,1111122,1111122' 
DISL,ioos:station:DISL:MBLA:1,2017-09-03T10:00:00Z,30.4367,-88.0117,14.2,3.85,47.28,-999.0,'1111122,1111122,1111122' 
DISL,ioos:station:DISL:MBLA:1,2017-09-03T10:30:00Z,30.4367,-88.0117,14.2,3.99,40.64,-999.0,'1111122,1111122,1111122' 
DISL,ioos:station:DISL:MBLA:1,2017-09-03T11:00:00Z,30.4367,-88.0117,14.2,4.37,36.54,-999.0,'1111122,1111122,1111122' 
DISL,ioos:station:DISL:MBLA:1,2017-09-03T11:30:00Z,30.4367,-88.0117,14.2,4.34,54.76,-999.0,'1111122,1111122,1111122' 
DISL,ioos:station:DISL:MBLA:1,2017-09-03T12:00:00Z,30.4367,-88.0117,14.2,4.1,40.64,-999.0,'1111122,1111122,1111122' 
DISL,ioos:station:DISL:MBLA:1,2017-09-03T12:30:00Z,30.4367,-88.0117,14.2,3.35,37.42,-999.0,'1111122,1111122,1111122' 
DISL,ioos:station:DISL:MBLA:1,2017-09-03T13:00:00Z,30.4367,-88.0117,14.2,3.11,31.51,-999.0,'1111122,1111122,1111122' 
DISL,ioos:station:DISL:MBLA:1,2017-09-03T13:30:00Z,30.4367,-88.0117,14.2,3.48,17.71,-999.0,'1111122,1111122,1111122' 
DISL,ioos:station:DISL:MBLA:1,2017-09-03T14:00:00Z,30.4367,-88.0117,14.2,4.32,6.984,-999.0,'1111122,1111122,1111122' 
DISL,ioos:station:DISL:MBLA:1,2017-09-03T14:30:00Z,30.4367,-88.0117,14.2,4.56,8.42,-999.0,'1111122,1111122,1111122' 
DISL,ioos:station:DISL:MBLA:1,2017-09-03T15:00:00Z,30.4367,-88.0117,14.2,3.31,11.52,-999.0,'1111122,1111122,1111122' 
DISL,ioos:station:DISL:MBLA:1,2017-09-03T15:30:00Z,30.4367,-88.0117,14.2,3.5,356.1,-999.0,'1111122,1111122,1111122' 
DISL,ioos:station:DISL:MBLA:1,2017-09-03T16:00:00Z,30.4367,-88.0117,14.2,3.99,345.6,-999.0,'1111122,1111122,1111122' 
DISL,ioos:station:DISL:MBLA:1,2017-09-03T16:30:00Z,30.4367,-88.0117,14.2,3.59,354.5,-999.0,'1111122,1111122,1111122' 
DISL,ioos:station:DISL:MBLA:1,2017-09-03T17:00:00Z,30.4367,-88.0117,14.2,3.71,344.7,-999.0,'1111122,1111122,1111122' 
DISL,ioos:station:DISL:MBLA:1,2017-09-03T17:30:00Z,30.4367,-88.0117,14.2,3.99,346.3,-999.0,'1111122,1111122,1111122' 
DISL,ioos:station:DISL:MBLA:1,2017-09-03T18:00:00Z,30.4367,-88.0117,14.2,4.28,344.3,-999.0,'1111122,1111122,1111122' 
DISL,ioos:station:DISL:MBLA:1,2017-09-03T18:30:00Z,30.4367,-88.0117,14.2,4.31,356.3,-999.0,'1111122,1111122,1111122' 
DISL,ioos:station:DISL:MBLA:1,2017-09-03T19:00:00Z,30.4367,-88.0117,14.2,3.96,0.698,-999.0,'1111122,1111122,1111122' 
DISL,ioos:station:DISL:MBLA:1,2017-09-03T19:30:00Z,30.4367,-88.0117,14.2,3.22,357.8,-999.0,'1111122,1111122,1111122' 
DISL,ioos:station:DISL:MBLA:1,2017-09-03T20:00:00Z,30.4367,-88.0117,14.2,2.79,13.99,-999.0,'1111122,1111122,1111122' 
DISL,ioos:station:DISL:MBLA:1,2017-09-03T20:30:00Z,30.4367,-88.0117,14.2,1.84,31.63,-999.0,'1111122,1111122,1111122' 
DISL,ioos:station:DISL:MBLA:1,2017-09-03T21:00:00Z,30.4367,-88.0117,14.2,1.9,11.4,-999.0,'1111122,1111122,1111122' 
DISL,ioos:station:DISL:MBLA:1,2017-09-03T21:30:00Z,30.4367,-88.0117,14.2,1.91,13.1,-999.0,'1111122,1111122,1111122' 
DISL,ioos:station:DISL:MBLA:1,2017-09-03T22:00:00Z,30.4367,-88.0117,14.2,2.3,11.61,-999.0,'1111122,1111122,1111122' 
DISL,ioos:station:DISL:MBLA:1,2017-09-03T22:30:00Z,30.4367,-88.0117,14.2,2.56,8.61,-999.0,'1111122,1111122,1111122' 
DISL,ioos:station:DISL:MBLA:1,2017-09-03T23:00:00Z,30.4367,-88.0117,14.2,2.11,349.9,-999.0,'1111122,1111122,1111122' 
DISL,ioos:station:DISL:MBLA:1,2017-09-03T23:30:00Z,30.4367,-88.0117,14.2,1.98,341.3,-999.0,'1111122,1111122,1111122' 
DISL,ioos:station:DISL:MBLA:1,2017-09-04T00:00:00Z,30.4367,-88.0117,14.2,2.46,304.5,-999.0,'1111122,1111122,1111122' 
DISL,ioos:station:DISL:MBLA:1,2017-09-04T00:30:00Z,30.4367,-88.0117,14.2,4.98,15.08,-999.0,'1111122,1111122,1111122' 
DISL,ioos:station:DISL:MBLA:1,2017-09-04T01:00:00Z,30.4367,-88.0117,14.2,4.41,13.66,-999.0,'1111122,1111122,1111122' 
DISL,ioos:station:DISL:MBLA:1,2017-09-04T01:30:00Z,30.4367,-88.0117,14.2,4.14,7.962,-999.0,'1111122,1111122,1111122' 
DISL,ioos:station:DISL:MBLA:1,2017-09-04T02:00:00Z,30.4367,-88.0117,14.2,3.78,28.09,-999.0,'1111122,1111122,1111122' 
DISL,ioos:station:DISL:MBLA:1,2017-09-04T02:30:00Z,30.4367,-88.0117,14.2,3.93,27.11,-999.0,'1111122,1111122,1111122' 
DISL,ioos:station:DISL:MBLA:1,2017-09-04T03:00:00Z,30.4367,-88.0117,14.2,4.1,40.81,-999.0,'1111122,1111122,1111122' 
DISL,ioos:station:DISL:MBLA:1,2017-09-04T03:30:00Z,30.4367,-88.0117,14.2,4.04,32.03,-999.0,'1111122,1111122,1111122' 
DISL,ioos:station:DISL:MBLA:1,2017-09-04T04:00:00Z,30.4367,-88.0117,14.2,3.58,30.77,-999.0,'1111122,1111122,1111122' 
DISL,ioos:station:DISL:MBLA:1,2017-09-04T04:30:00Z,30.4367,-88.0117,14.2,2.93,44.5,-999.0,'1111122,1111122,1111122' 
DISL,ioos:station:DISL:MBLA:1,2017-09-04T05:00:00Z,30.4367,-88.0117,14.2,3.3,86.1,-999.0,'1111122,1111122,1111122' 
DISL,ioos:station:DISL:MBLA:1,2017-09-04T05:30:00Z,30.4367,-88.0117,14.2,3.38,106.1,-999.0,'1111122,1111122,1111122' 
DISL,ioos:station:DISL:MBLA:1,2017-09-04T06:00:00Z,30.4367,-88.0117,14.2,3.85,111.1,-999.0,'1111122,1111122,1111122' 
DISL,ioos:station:DISL:MBLA:1,2017-09-04T06:30:00Z,30.4367,-88.0117,14.2,3.67,116.0,-999.0,'1111122,1111122,1111122' 
DISL,ioos:station:DISL:MBLA:1,2017-09-04T07:00:00Z,30.4367,-88.0117,14.2,3.21,112.0,-999.0,'1111122,1111122,1111122' 
DISL,ioos:station:DISL:MBLA:1,2017-09-04T07:30:00Z,30.4367,-88.0117,14.2,3.19,119.5,-999.0,'1111122,1111122,1111122' 
DISL,ioos:station:DISL:MBLA:1,2017-09-04T08:00:00Z,30.4367,-88.0117,14.2,2.31,74.64,-999.0,'1111122,1111122,1111122' 
DISL,ioos:station:DISL:MBLA:1,2017-09-04T08:30:00Z,30.4367,-88.0117,14.2,2.6,52.49,-999.0,'1111122,1111122,1111122' 
DISL,ioos:station:DISL:MBLA:1,2017-09-04T09:00:00Z,30.4367,-88.0117,14.2,2.33,34.51,-999.0,'1111122,1111122,1111122' 
DISL,ioos:station:DISL:MBLA:1,2017-09-04T09:30:00Z,30.4367,-88.0117,14.2,2.99,38.6,-999.0,'1111122,1111122,1111122' 
DISL,ioos:station:DISL:MBLA:1,2017-09-04T10:00:00Z,30.4367,-88.0117,14.2,2.73,26.81,-999.0,'1111122,1111122,1111122' 
DISL,ioos:station:DISL:MBLA:1,2017-09-04T10:30:00Z,30.4367,-88.0117,14.2,3.27,42.47,-999.0,'1111122,1111122,1111122' 
DISL,ioos:station:DISL:MBLA:1,2017-09-04T11:00:00Z,30.4367,-88.0117,14.2,3.59,54.25,-999.0,'1111122,1111122,1111122' 
DISL,ioos:station:DISL:MBLA:1,2017-09-04T11:30:00Z,30.4367,-88.0117,14.2,3.58,27.18,-999.0,'1111122,1111122,1111122' 
DISL,ioos:station:DISL:MBLA:1,2017-09-04T12:00:00Z,30.4367,-88.0117,14.2,3.5,16.52,-999.0,'1111122,1111122,1111122' 
DISL,ioos:station:DISL:MBLA:1,2017-09-04T12:30:00Z,30.4367,-88.0117,14.2,3.36,18.36,-999.0,'1111122,1111122,1111122' 
DISL,ioos:station:DISL:MBLA:1,2017-09-04T13:00:00Z,30.4367,-88.0117,14.2,4.37,11.64,-999.0,'1111122,1111122,1111122' 
DISL,ioos:station:DISL:MBLA:1,2017-09-04T13:30:00Z,30.4367,-88.0117,14.2,4.11,14.73,-999.0,'1111122,1111122,1111122' 
DISL,ioos:station:DISL:MBLA:1,2017-09-04T14:00:00Z,30.4367,-88.0117,14.2,3.95,13.89,-999.0,'1111122,1111122,1111122' 
DISL,ioos:station:DISL:MBLA:1,2017-09-04T14:30:00Z,30.4367,-88.0117,14.2,3.47,12.86,-999.0,'1111122,1111122,1111122' 
DISL,ioos:station:DISL:MBLA:1,2017-09-04T15:00:00Z,30.4367,-88.0117,14.2,3.22,7.757,-999.0,'1111122,1111122,1111122' 
DISL,ioos:station:DISL:MBLA:1,2017-09-04T15:30:00Z,30.4367,-88.0117,14.2,3.32,6.807,-999.0,'1111122,1111122,1111122' 
DISL,ioos:station:DISL:MBLA:1,2017-09-04T16:00:00Z,30.4367,-88.0117,14.2,2.74,353.6,-999.0,'1111122,1111122,1111122' 
DISL,ioos:station:DISL:MBLA:1,2017-09-04T16:30:00Z,30.4367,-88.0117,14.2,2.84,6.932,-999.0,'1111122,1111122,1111122' 
DISL,ioos:station:DISL:MBLA:1,2017-09-04T17:00:00Z,30.4367,-88.0117,14.2,2.34,1.921,-999.0,'1111122,1111122,1111122' 
DISL,ioos:station:DISL:MBLA:1,2017-09-04T17:30:00Z,30.4367,-88.0117,14.2,2.4,338.2,-999.0,'1111122,1111122,1111122' 
DISL,ioos:station:DISL:MBLA:1,2017-09-04T18:00:00Z,30.4367,-88.0117,14.2,1.96,344.2,-999.0,'1111122,1111122,1111122' 
DISL,ioos:station:DISL:MBLA:1,2017-09-04T18:30:00Z,30.4367,-88.0117,14.2,1.24,348.9,-999.0,'1111122,1111122,1111122' 
DISL,ioos:station:DISL:MBLA:1,2017-09-04T19:00:00Z,30.4367,-88.0117,14.2,0.2,355.6,-999.0,'1111122,1111122,1111122' 
DISL,ioos:station:DISL:MBLA:1,2017-09-04T19:30:00Z,30.4367,-88.0117,14.2,0.6,199.7,-999.0,'1111122,1111122,1111122' 
DISL,ioos:station:DISL:MBLA:1,2017-09-04T20:00:00Z,30.4367,-88.0117,14.2,1.6,166.2,-999.0,'1111122,1111122,1111122' 
DISL,ioos:station:DISL:MBLA:1,2017-09-04T20:30:00Z,30.4367,-88.0117,14.2,2.44,197.6,-999.0,'1111122,1111122,1111122' 
DISL,ioos:station:DISL:MBLA:1,2017-09-04T21:00:00Z,30.4367,-88.0117,14.2,2.84,183.1,-999.0,'1111122,1111122,1111122' 
DISL,ioos:station:DISL:MBLA:1,2017-09-04T21:30:00Z,30.4367,-88.0117,14.2,3.59,199.3,-999.0,'1111122,1111122,1111122' 
DISL,ioos:station:DISL:MBLA:1,2017-09-04T22:00:00Z,30.4367,-88.0117,14.2,3.11,209.8,-999.0,'1111122,1111122,1111122' 
DISL,ioos:station:DISL:MBLA:1,2017-09-04T22:30:00Z,30.4367,-88.0117,14.2,3.69,215.2,-999.0,'1111122,1111122,1111122' 
DISL,ioos:station:DISL:MBLA:1,2017-09-04T23:00:00Z,30.4367,-88.0117,14.2,4.05,198.5,-999.0,'1111122,1111122,1111122' 
DISL,ioos:station:DISL:MBLA:1,2017-09-04T23:30:00Z,30.4367,-88.0117,14.2,4.1,189.2,-999.0,'1111122,1111122,1111122' 
DISL,ioos:station:DISL:MBLA:1,2017-09-05T00:00:00Z,30.4367,-88.0117,14.2,3.9,206.2,-999.0,'1111122,1111122,1111122' 
DISL,ioos:station:DISL:MBLA:1,2017-09-05T00:30:00Z,30.4367,-88.0117,14.2,3.53,208.0,-999.0,'1111122,1111122,1111122' 
DISL,ioos:station:DISL:MBLA:1,2017-09-05T01:00:00Z,30.4367,-88.0117,14.2,3.46,195.9,-999.0,'1111122,1111122,1111122' 
DISL,ioos:station:DISL:MBLA:1,2017-09-05T01:30:00Z,30.4367,-88.0117,14.2,3.73,200.2,-999.0,'1111122,1111122,1111122' 
DISL,ioos:station:DISL:MBLA:1,2017-09-05T02:00:00Z,30.4367,-88.0117,14.2,3.99,194.7,-999.0,'1111122,1111122,1111122' 
DISL,ioos:station:DISL:MBLA:1,2017-09-05T02:30:00Z,30.4367,-88.0117,14.2,4.04,215.6,-999.0,'1111122,1111122,1111122' 
DISL,ioos:station:DISL:MBLA:1,2017-09-05T03:00:00Z,30.4367,-88.0117,14.2,3.69,210.4,-999.0,'1111122,1111122,1111122' 
DISL,ioos:station:DISL:MBLA:1,2017-09-05T03:30:00Z,30.4367,-88.0117,14.2,3.59,208.3,-999.0,'1111122,1111122,1111122' 
DISL,ioos:station:DISL:MBLA:1,2017-09-05T04:00:00Z,30.4367,-88.0117,14.2,4.1,208.8,-999.0,'1111122,1111122,1111122' 
DISL,ioos:station:DISL:MBLA:1,2017-09-05T04:30:00Z,30.4367,-88.0117,14.2,4.14,197.7,-999.0,'1111122,1111122,1111122' 